User: anonymous   Login
Location: La Chapelle
(48.3135°N, 1.3085°W)
Time: 17:49:52
(UTC+00:00)
Language:

Ariane Rocket - Orbit

View from above orbital plane
View from above orbital plane
View from above satellite
View from above satellite

Ground track
Ground track

The orbit data is extracted from the following two-line orbital elements,

1 23561U 95021B   21129.22847889  .00000029  00000-0  24714-4 0  9990
2 23561  98.6780 178.6439 0007107  17.9895  23.6481 14.38023940365393
Epoch (UTC): 09 May 2021 05:29:00
Eccentricity: 0.0007107
inclination: 98.6780°
perigee height: 760 km
apogee height: 770 km
right ascension of ascending node: 178.6439°
argument of perigee: 17.9895°
revolutions per day: 14.38023940
mean anomaly at epoch: 23.6481°
orbit number at epoch: 36539

The dashed part of the orbit path shows where the satellite is in the earth's shadow,  

DLR